When you browse on this site, cookies collect data to enhance your experience and personalize the content and advertising you see.
Visit our Privacy Policy to learn more. By continuing to use the site, you agree to this use of cookies and data.
  • In Österreich
  • Länderverzeichnis
  • Für 7 Tage
  • Wassertemperatur
  • Satellitenkarten
  • Wetterkarte
  • News
  • Widgets
  • user-avatar
    Anmelden

    Stündliche Wetter Gdansk

    Heute, 21 März, Donnerstag

    Zeit Temperatur Niederschläge Wind Luftdruck Luftfeuchtigkeit
    00:00 +6°C° 0 mm 5 m/S 766 mmHg 87%
    01:00 +5°C° 0 mm 4 m/S 766 mmHg 89%
    02:00 +5°C° 0 mm 4 m/S 767 mmHg 90%
    03:00 +4°C° 0 mm 4 m/S 767 mmHg 91%
    04:00 +4°C° 0 mm 4 m/S 767 mmHg 92%
    05:00 +4°C° 0 mm 4 m/S 767 mmHg 91%
    06:00 +5°C° 0 mm 5 m/S 767 mmHg 90%
    07:00 +5°C° 0 mm 5 m/S 767 mmHg 89%
    08:00 +6°C° 0 mm 5 m/S 767 mmHg 84%
    09:00 +7°C° 0 mm 5 m/S 767 mmHg 80%
    10:00 +8°C° 0 mm 6 m/S 767 mmHg 75%
    11:00 +9°C° 0 mm 6 m/S 767 mmHg 72%
    12:00 +10°C° 0 mm 6 m/S 767 mmHg 70%
    13:00 +11°C° 0 mm 7 m/S 767 mmHg 67%
    14:00 +10°C° 0 mm 7 m/S 767 mmHg 70%
    15:00 +10°C° 0 mm 7 m/S 766 mmHg 74%
    16:00 +10°C° 0 mm 7 m/S 766 mmHg 77%
    17:00 +9°C° 0 mm 7 m/S 766 mmHg 79%
    18:00 +9°C° 0 mm 7 m/S 766 mmHg 80%
    19:00 +9°C° 0 mm 7 m/S 766 mmHg 81%
    20:00 +9°C° 0 mm 7 m/S 766 mmHg 82%
    21:00 +9°C° 0 mm 6 m/S 766 mmHg 83%
    22:00 +9°C° 0 mm 6 m/S 766 mmHg 83%
    23:00 +9°C° 0 mm 6 m/S 766 mmHg 85%

    Morgen, 22 März, Freitag

    Zeit Temperatur Niederschläge Wind Luftdruck Luftfeuchtigkeit
    00:00 +8°C° 0 mm 6 m/S 767 mmHg 86%
    01:00 +8°C° 0 mm 6 m/S 767 mmHg 88%
    02:00 +8°C° 0 mm 5 m/S 767 mmHg 88%
    03:00 +8°C° 0 mm 5 m/S 767 mmHg 88%
    04:00 +7°C° 0 mm 5 m/S 768 mmHg 89%
    05:00 +7°C° 0 mm 4 m/S 768 mmHg 89%
    06:00 +6°C° 0 mm 4 m/S 769 mmHg 90%
    07:00 +7°C° 0 mm 3 m/S 769 mmHg 90%
    08:00 +8°C° 0 mm 3 m/S 770 mmHg 81%
    09:00 +8°C° 0 mm 3 m/S 770 mmHg 72%
    10:00 +8°C° 0 mm 4 m/S 771 mmHg 62%
    11:00 +8°C° 0 mm 4 m/S 771 mmHg 57%
    12:00 +8°C° 0 mm 4 m/S 771 mmHg 52%
    13:00 +10°C° 0 mm 4 m/S 771 mmHg 46%
    14:00 +8°C° 0 mm 4 m/S 771 mmHg 45%
    15:00 +9°C° 0 mm 3 m/S 770 mmHg 43%
    16:00 +9°C° 0 mm 3 m/S 770 mmHg 41%
    17:00 +8°C° 0 mm 3 m/S 770 mmHg 44%
    18:00 +6°C° 0 mm 2 m/S 770 mmHg 48%
    19:00 +5°C° 0 mm 2 m/S 770 mmHg 51%
    20:00 +5°C° 0 mm 2 m/S 769 mmHg 52%
    21:00 +4°C° 0 mm 3 m/S 769 mmHg 54%
    22:00 +4°C° 0 mm 3 m/S 769 mmHg 55%
    23:00 +4°C° 0 mm 3 m/S 768 mmHg 56%

    übermorgen, 23 März, Samstag

    Zeit Temperatur Niederschläge Wind Luftdruck Luftfeuchtigkeit
    00:00 +4°C° 0 mm 3 m/S 768 mmHg 56%
    01:00 +4°C° 0 mm 4 m/S 768 mmHg 57%
    02:00 +4°C° 0 mm 4 m/S 767 mmHg 66%
    03:00 +4°C° 0 mm 4 m/S 767 mmHg 74%
    04:00 +4°C° 0 mm 4 m/S 766 mmHg 83%
    05:00 +5°C° 0 mm 4 m/S 766 mmHg 86%
    06:00 +5°C° 0 mm 5 m/S 765 mmHg 89%
    07:00 +6°C° 0 mm 5 m/S 765 mmHg 92%
    08:00 +8°C° 0 mm 5 m/S 765 mmHg 86%
    09:00 +10°C° 0 mm 5 m/S 764 mmHg 80%
    10:00 +13°C° 0 mm 5 m/S 764 mmHg 73%
    11:00 +14°C° 0 mm 5 m/S 764 mmHg 68%
    12:00 +15°C° 0 mm 5 m/S 763 mmHg 63%
    13:00 +17°C° 0 mm 5 m/S 763 mmHg 59%
    14:00 +16°C° 0.1 mm 5 m/S 763 mmHg 62%
    15:00 +14°C° 0.1 mm 5 m/S 763 mmHg 66%
    16:00 +13°C° 0.1 mm 6 m/S 762 mmHg 69%
    17:00 +11°C° 0 mm 6 m/S 763 mmHg 68%
    18:00 +9°C° 0 mm 6 m/S 763 mmHg 66%
    19:00 +8°C° 0 mm 6 m/S 764 mmHg 65%
    20:00 +7°C° 0 mm 6 m/S 764 mmHg 63%
    21:00 +5°C° 0 mm 6 m/S 765 mmHg 61%
    22:00 +4°C° 0 mm 6 m/S 765 mmHg 59%
    23:00 +3°C° 0 mm 6 m/S 765 mmHg 61%

    24 März, Sonntag

    Zeit Temperatur Niederschläge Wind Luftdruck Luftfeuchtigkeit
    00:00 +3°C° 0 mm 6 m/S 766 mmHg 63%
    01:00 +2°C° 0 mm 5 m/S 766 mmHg 65%
    02:00 +2°C° 0 mm 5 m/S 766 mmHg 69%
    03:00 +1°C° 0 mm 5 m/S 766 mmHg 72%
    04:00 +1°C° 0 mm 4 m/S 766 mmHg 75%
    05:00 +1°C° 0 mm 4 m/S 766 mmHg 75%
    06:00 +1°C° 0 mm 4 m/S 766 mmHg 76%
    07:00 +1°C° 0 mm 4 m/S 766 mmHg 76%
    08:00 +3°C° 0 mm 4 m/S 766 mmHg 71%
    09:00 +4°C° 0 mm 4 m/S 766 mmHg 66%
    10:00 +5°C° 0 mm 4 m/S 766 mmHg 62%
    11:00 +6°C° 0 mm 4 m/S 766 mmHg 60%
    12:00 +6°C° 0 mm 4 m/S 766 mmHg 58%
    13:00 +7°C° 0 mm 5 m/S 766 mmHg 56%
    14:00 +6°C° 0 mm 5 m/S 765 mmHg 56%
    15:00 +6°C° 0 mm 5 m/S 765 mmHg 55%
    16:00 +6°C° 0 mm 5 m/S 765 mmHg 55%
    17:00 +5°C° 0 mm 4 m/S 764 mmHg 59%
    18:00 +4°C° 0 mm 4 m/S 764 mmHg 63%
    19:00 +3°C° 0 mm 4 m/S 764 mmHg 67%
    20:00 +3°C° 0 mm 4 m/S 764 mmHg 71%
    21:00 +1°C° 0 mm 5 m/S 763 mmHg 75%
    22:00 +1°C° 0 mm 5 m/S 763 mmHg 79%
    23:00 +1°C° 0 mm 5 m/S 763 mmHg 77%

    25 März, Montag

    Zeit Temperatur Niederschläge Wind Luftdruck Luftfeuchtigkeit
    00:00 +1°C° 0 mm 6 m/S 762 mmHg 76%
    01:00 +1°C° 0 mm 6 m/S 762 mmHg 74%
    02:00 +1°C° 0 mm 6 m/S 761 mmHg 77%
    03:00 -1°C° 0 mm 6 m/S 760 mmHg 79%
    04:00 -1°C° 0 mm 7 m/S 760 mmHg 82%
    05:00 0°C° 0.2 mm 7 m/S 759 mmHg 80%
    06:00 0°C° 0.2 mm 8 m/S 758 mmHg 79%
    07:00 +1°C° 0.2 mm 9 m/S 758 mmHg 77%
    08:00 +2°C° 0.3 mm 9 m/S 757 mmHg 71%
    09:00 +3°C° 0.3 mm 9 m/S 757 mmHg 64%
    10:00 +5°C° 0.3 mm 9 m/S 757 mmHg 57%
    11:00 +5°C° 0.1 mm 9 m/S 757 mmHg 56%
    12:00 +5°C° 0.1 mm 9 m/S 756 mmHg 54%
    13:00 +5°C° 0.1 mm 10 m/S 756 mmHg 52%
    14:00 +5°C° 0.1 mm 10 m/S 756 mmHg 53%
    15:00 +3°C° 0.1 mm 10 m/S 755 mmHg 54%
    16:00 +3°C° 0.1 mm 10 m/S 755 mmHg 54%
    17:00 +2°C° 0.1 mm 10 m/S 754 mmHg 55%
    18:00 +2°C° 0.1 mm 9 m/S 754 mmHg 56%
    19:00 +1°C° 0.1 mm 9 m/S 754 mmHg 56%
    20:00 +1°C° 0.3 mm 9 m/S 754 mmHg 57%
    21:00 +1°C° 0.3 mm 8 m/S 754 mmHg 58%
    22:00 0°C° 0.3 mm 8 m/S 754 mmHg 59%
    23:00 0°C° 0 mm 7 m/S 754 mmHg 62%

    26 März, Dienstag

    Zeit Temperatur Niederschläge Wind Luftdruck Luftfeuchtigkeit
    00:00 0°C° 0 mm 7 m/S 754 mmHg 64%
    01:00 -1°C° 0 mm 7 m/S 754 mmHg 66%
    02:00 -1°C° 0.1 mm 7 m/S 754 mmHg 68%
    03:00 -1°C° 0.1 mm 8 m/S 754 mmHg 69%
    04:00 -1°C° 0.1 mm 8 m/S 754 mmHg 71%
    05:00 -1°C° 0 mm 9 m/S 755 mmHg 69%
    06:00 -2°C° 0 mm 10 m/S 755 mmHg 68%
    07:00 -2°C° 0 mm 10 m/S 755 mmHg 67%
    08:00 -2°C° 0.1 mm 11 m/S 756 mmHg 67%
    09:00 -2°C° 0.1 mm 11 m/S 757 mmHg 67%
    10:00 -1°C° 0.1 mm 11 m/S 757 mmHg 67%
    11:00 -1°C° 0 mm 11 m/S 758 mmHg 67%
    12:00 +1°C° 0 mm 10 m/S 759 mmHg 67%
    13:00 +1°C° 0 mm 9 m/S 759 mmHg 67%
    14:00 +1°C° 0 mm 9 m/S 760 mmHg 67%
    15:00 +1°C° 0 mm 8 m/S 761 mmHg 68%
    16:00 +1°C° 0 mm 8 m/S 761 mmHg 68%
    17:00 0°C° 0 mm 7 m/S 762 mmHg 71%
    18:00 0°C° 0 mm 7 m/S 762 mmHg 75%
    19:00 -1°C° 0 mm 6 m/S 763 mmHg 78%
    20:00 -1°C° 0 mm 6 m/S 763 mmHg 80%
    21:00 -1°C° 0 mm 6 m/S 764 mmHg 82%
    22:00 -2°C° 0 mm 6 m/S 764 mmHg 85%
    23:00 -1°C° 0 mm 5 m/S 765 mmHg 84%
    Mehr zeigen